Location: Curupao
(10.4996°N, 66.6442°W)
Time: 20:56:07
(UTC+00:00)

CENTAUR R/B - Pass Details

Date: 23 May 2024
Orbit: 667 x 1517 km, 63.4° (Epoch: 25 June)

Event Time Altitude Azimuth Distance (km) Brightness Sun altitude
Exits shadow 09:20:24 10° 217° (SW) 2,112 3.8 -10.7°
Maximum altitude 09:25:01 56° 295° (WNW) 862 2.1 -9.6°
Drops below altitude 10° 09:30:18 10° 14° (NNE) 2,407 5.1 -8.4°
Sets 09:33:01 0° 18° (NNE) 3,460 6.0 -7.8°
